Location: LDNL
(36.4545°S, 141.6685°E)
Time: 23:31:13
(UTC+11:00)

ISS - Pass Details

Date: 14 December 2021
Orbit: 413 x 422 km, 51.6° (Epoch: 22 January)

Event Time Altitude Azimuth Distance (km) Brightness Sun altitude
Rises 22:19:51 0° 294° (WNW) 2,360 0.3 -15.6°
Reaches altitude 10° 22:22:02 10° 285° (WNW) 1,501 -0.6 -15.9°
Maximum altitude 22:25:12 37° 215° (SW) 675 -2.1 -16.4°
Drops below altitude 10° 22:28:23 10° 146° (SE) 1,513 -0.8 -16.8°
Sets 22:30:36 0° 137° (SE) 2,381 0.1 -17.1°
